Location: Rostock
(54.0884°N, 12.1234°E)
Time: 12:43:11
(UTC+02:00)

ISS - Pass Details

Date: 27 May 2018
Orbit: 402 x 406 km, 51.6° (Epoch: 19 June)

Event Time Altitude Azimuth Distance (km) Brightness Sun altitude
Rises 00:17:22 0° 273° (W) 2,323 0.2 -13.9°
Reaches altitude 10° 00:19:30 10° 267° (W) 1,462 -0.9 -13.9°
Maximum altitude 00:22:37 44° 194° (SSW) 575 -3.5 -14.0°
Enters shadow 00:24:04 26° 137° (SE) 845 -2.7 -14.1°
